Home   Weather   Winchester   Past weeks

Flag for United Kingdom Past Weather in Winchester, England, United Kingdom — Yesterday and Last 2 Weeks

Now
63 °F

Partly sunny.


Feels Like: 63 °F
Forecast: 62 / 72 °F
Wind: 12 mph from South

Location: Middle Wallop

Current Time: Aug 16, 2017 at 8:57:55 pm

Latest Report: Aug 16, 2017 at 7:50 pm


Visibility: N/A

Pressure: 30.01 "Hg

Humidity: 73%

Dew Point: 54 °F

Location of WinchesterLocation

Past Weather in Winchester — Graph

°F

Winchester Temperature Yesterday

Maximum temperature yesterday: 72 °F (at 1:50 pm)
Minimum temperature yesterday: 57 °F (at 1:50 am)
Average temperature yesterday: 62 °F

High & Low Weather Summary for the Past Weeks

 TemperatureHumidityPressure
High72 °F (Aug 15, 1:50 pm)100% (Aug 2, 12:29 pm)30.24 "Hg (Aug 2, 12:29 pm)
Low46 °F (Aug 14, 4:50 am)38% (Aug 10, 4:50 pm)29.68 "Hg (Aug 3, 4:50 am)
Average60 °F80%30.01 "Hg
* Reported Aug 1 6:50 pm — Aug 16 6:50 pm, Winchester. Weather by CustomWeather, © 2017

Note: Actual official high and low records may vary slightly from our data, if they occured in-between our weather recording intervals... More about our weather records

Advertising

Winchester Weather History for the Previous 24 Hours

Scroll right to see more
 ConditionsComfort  
Time TempWeatherWind HumidityBarometerVisibility
6:50 pm
Wed, Aug 16
64 °FPartly sunny.13 mph60%30.04 "HgN/A
5:50 pm66 °FBroken clouds.15 mph60%30.04 "HgN/A
4:50 pm68 °FPassing clouds.13 mph56%30.07 "HgN/A
3:50 pm68 °FScattered clouds.13 mph56%30.07 "HgN/A
2:50 pm68 °FBroken clouds.14 mph53%30.07 "HgN/A
1:50 pm68 °FBroken clouds.13 mph56%30.09 "HgN/A
12:50 pm66 °FBroken clouds.10 mph56%30.09 "HgN/A
11:50 am64 °FBroken clouds.9 mph64%30.09 "HgN/A
10:50 am63 °FPartly sunny.8 mph77%30.12 "HgN/A
9:50 am59 °FPartly sunny.3 mph82%30.12 "HgN/A
8:50 am54 °FPartly sunny.1 mph94%30.12 "HgN/A
7:50 am52 °FBroken clouds.2 mph94%30.12 "HgN/A
6:50 am50 °FPartly sunny.2 mph94%30.12 "HgN/A
5:50 am50 °FPassing clouds.3 mph94%30.12 "HgN/A
4:50 am50 °FClear.1 mph94%30.09 "HgN/A
3:50 am50 °FPassing clouds.1 mph94%30.12 "HgN/A
2:50 am52 °FClear.1 mph88%30.09 "HgN/A
1:50 am54 °FClear.1 mph82%30.12 "HgN/A
12:50 am57 °FPassing clouds.3 mph77%30.12 "HgN/A
11:50 pm
Tue, Aug 15
57 °FPassing clouds.1 mph72%30.12 "HgN/A
10:50 pm57 °FPassing clouds.3 mph72%30.09 "HgN/A
9:50 pm59 °FClear.3 mph68%30.09 "Hg10 mi
8:50 pm63 °FClear.2 mph59%30.09 "Hg10 mi
Weather by CustomWeather, © 2017

See weather overviewHow to use our weather pages